Weather History for Granada, Spain

Change the Weather History Date:

Friday, February 17, 2012

  Actual Average Record
Temperature  
Mean Temperature 44 °F -  
Max Temperature 55 °F 61 °F 75 °F (1998)
Min Temperature 32 °F 36 °F 21 °F (2005)
Degree Days  
Heating Degree Days 22    
Moisture  
Dew Point 33 °F    
Average Humidity 65    
Maximum Humidity 100    
Minimum Humidity 33    
Precipitation  
Precipitation 0.00 in - - ()
Sea Level Pressure  
Sea Level Pressure 30.16 in    
Wind  
Wind Speed 2 mph ()    
Max Wind Speed 12 mph    
Max Gust Speed -    
Visibility 6.7 miles    
Events Rain    
Averages and records for this station are not official NWS values.
T = Trace of Precipitation, MM = Missing Value Source: Averaged Metar Reports

Daily Weather History Graph

Daily Weather History Graph

Search for Another Location

Airport:

Trip Planner

Search our weather history database for the weather conditions in past years. The results will help you decide how hot, cold, wet, or windy it might be!

Date:

Astronomy

Feb. 17, 2012 Rise Set
Actual Time 8:02 AM CET 6:56 PM CET
Civil Twilight 7:35 AM CET 7:22 PM CET
Nautical Twilight 7:05 AM CET 7:53 PM CET
Astronomical Twilight 6:35 AM CET 8:23 PM CET
Moon 4:37 AM CET (2/17) 2:38 PM CET (2/17)
Length of Visible Light 11h 47m
Length of Day
10h 53m
Waning Crescent, 21% of the Moon is Illuminated
Feb 17
Waning Crescent
Feb 21
New
Mar 1
First Quarter
Mar 8
Full
Mar 15
Last Quarter

Hourly Weather History & Observations

Time (CET) Temp. Windchill Dew Point Humidity Pressure Visibility Wind Dir Wind Speed Gust Speed Precip Events Conditions
1:00 AM 41 °F - 34 °F 68% 30.22 in 19 mi SSE 5.8 mph - - Rain Light Drizzle
6:00 AM 35.6 °F 31.7 °F 33.8 °F 93% 30.12 in 6.2 mi South 4.6 mph - N/A   Partly Cloudy
6:30 AM 35.6 °F - 33.8 °F 93% 30.15 in 6.2 mi Variable 1.2 mph - N/A   Partly Cloudy
7:00 AM 33 °F - 31 °F 87% 30.23 in 6 mi Calm Calm - -   Partly Cloudy
7:00 AM 33.8 °F - 32.0 °F 93% 30.15 in 6.2 mi Calm Calm - N/A   Partly Cloudy
7:30 AM 32.0 °F - 32.0 °F 100% 30.15 in 6.2 mi Variable 1.2 mph - N/A   Partly Cloudy
8:00 AM 32.0 °F - 32.0 °F 100% 30.15 in 6.2 mi Calm Calm - N/A   Partly Cloudy
8:30 AM 32.0 °F - 32.0 °F 100% 30.15 in 1.9 mi Variable 1.2 mph - N/A   Partly Cloudy
9:00 AM 35.6 °F - 33.8 °F 93% 30.15 in 3.1 mi Calm Calm - N/A   Partly Cloudy
9:30 AM 39.2 °F - 35.6 °F 87% 30.18 in 5.0 mi Calm Calm - N/A   Partly Cloudy
10:00 AM 41.0 °F - 35.6 °F 81% 30.18 in 5.0 mi Calm Calm - N/A   Partly Cloudy
10:30 AM 44.6 °F - 35.6 °F 71% 30.18 in 5.0 mi Calm Calm - N/A   Partly Cloudy
11:00 AM 44.6 °F - 35.6 °F 71% 30.18 in 5.0 mi Calm Calm - N/A   Partly Cloudy
11:30 AM 48.2 °F - 35.6 °F 62% 30.18 in 5.0 mi Calm Calm - N/A   Partly Cloudy
12:00 PM 46.4 °F - 35.6 °F 66% 30.18 in 5.0 mi Calm Calm - N/A   Partly Cloudy
12:30 PM 50.0 °F - 33.8 °F 54% 30.18 in 5.0 mi Calm Calm - N/A   Partly Cloudy
1:00 PM 51 °F - 31 °F 34% 30.19 in 19 mi Calm Calm - -   Scattered Clouds
1:00 PM 50.0 °F - 33.8 °F 54% 30.18 in 5.0 mi Calm Calm - N/A   Partly Cloudy
1:30 PM 51.8 °F - 32.0 °F 47% 30.15 in 5.0 mi Variable 1.2 mph - N/A   Partly Cloudy
2:00 PM 53.6 °F - 26.6 °F 35% 30.15 in 6.2 mi Calm Calm - N/A   Partly Cloudy
2:30 PM 51.8 °F - 28.4 °F 41% 30.12 in 6.2 mi Variable 1.2 mph - N/A   Partly Cloudy
3:30 PM 55.4 °F - 28.4 °F 36% 30.12 in 6.2 mi Variable 1.2 mph - N/A   Partly Cloudy
4:00 PM 55.4 °F - 30.2 °F 38% 30.12 in 6.2 mi Variable 1.2 mph - N/A   Partly Cloudy
4:30 PM 55.4 °F - 26.6 °F 33% 30.12 in 6.2 mi ESE 4.6 mph - N/A   Partly Cloudy
5:00 PM 55.4 °F - 28.4 °F 36% 30.12 in 6.2 mi Variable 1.2 mph - N/A   Partly Cloudy
5:30 PM 51.8 °F - 33.8 °F 50% 30.12 in 6.2 mi South 9.2 mph - N/A   Partly Cloudy
6:00 PM 51.8 °F - 33.8 °F 50% 30.12 in 6.2 mi South 9.2 mph - N/A   Partly Cloudy
6:30 PM 51.8 °F - 35.6 °F 54% 30.12 in 6.2 mi South 8.1 mph - N/A   Partly Cloudy
7:00 PM 49 °F - 35 °F 46% 30.16 in 19 mi South 11.5 mph - -   Mostly Cloudy
7:00 PM 50.0 °F - 35.6 °F 58% 30.12 in 6.2 mi SSW 10.4 mph - N/A   Scattered Clouds
8:00 PM 50.0 °F - 35.6 °F 58% 30.15 in 6.2 mi South 5.8 mph - N/A   Scattered Clouds
8:30 PM 48.2 °F - 35.6 °F 62% 30.15 in 6.2 mi NE 4.6 mph - N/A   Scattered Clouds
9:00 PM 48.2 °F - 37.4 °F 66% 30.15 in 6.2 mi Variable 1.2 mph - N/A   Scattered Clouds
9:30 PM 48.2 °F - 37.4 °F 66% 30.15 in 6.2 mi Variable 1.2 mph - N/A   Scattered Clouds
10:00 PM 44.6 °F - 35.6 °F 71% 30.18 in 6.2 mi Variable 2.3 mph - N/A   Scattered Clouds
10:30 PM 41.0 °F - 33.8 °F 76% 30.18 in 6.2 mi Variable 1.2 mph - N/A   Scattered Clouds
11:00 PM 42.8 °F - 33.8 °F 70% 30.18 in 6.2 mi Calm Calm - N/A   Scattered Clouds